CZ-6A DEB

Satellite information

Favourite Embed

Satellite Type and Status

DEBRISIN ORBIT

Key statistics

Satellite CZ-6A DEB at a glance.

Uptime

495

Days in orbit

Revolutions

≈ 14.3

Per day

Orbit

LEO

Low Earth Orbit

Inclination

89.0

Latest

Satellite identification and parameters

Extended collection of information and parameters for CZ-6A DEB.

Object identification

Identified? True

Debris? True

Object name: CZ-6A DEB

International designator: 2024-140YK

Object number (NORAD): 61418

Object ID (CCSDS): 61418

Country: PEOPLES REPUBLIC OF CHINA (PRC)

Current information (Y/N): Y

RCS size: SMALL

Orbital parameters

Period: 100.858 minutes

Inclination: 88.9835 deg

SMA: 7177.413 km

Apoapsis: 833.616 km

Periapsis: 764.939 km

RAAN: 294.053 deg

Eccentricy: 0.00478424

Argument of periapsis: 340.3226 deg

Mean anomaly: 19.6121 deg

Mean motion: 14.27745786 rev/day

Mean motion (dot): 0.00002972 rev/day2

B* drag term: 0.0011845524 1/REarth

Two-line elements (TLE)

Creation date: Dec. 13, 2025, 5:47 p.m.

Reference frame: TEME

Reference center: EARTH

Epoch: Dec. 13, 2025, 2:35 a.m. UTC

TLE line 0: 0 CZ-6A DEB

TLE line 1: 1 61418U 24140YK 25347.10816899 .00002972 00000-0 11846-2 0 9996

TLE line 2: 2 61418 88.9835 294.0530 0047842 340.3226 19.6121 14.27745786 69175

Live tracking on map

Real-time ground track for satellite CZ-6A DEB.

In-orbit conjunctions

A list of the most updated potential collisions computed for object CZ-6A DEB.

Target Orbit TCA Probability of collision Miss distance Type
FENGYUN 1C DEB SSO 2025-09-21 11:39:33 0.0001072446 585.0 (m) DEBRIS
DMSP 5D-2 F13 DEB SSO 2025-08-19 14:32:14 0.0002437341 167.0 (m) DEBRIS
PSLV R/B SSO 2025-03-04 18:33:34 0.001445856 77.0 (m) ROCKET BODY
FENGYUN 1C DEB SSO 2024-10-13 07:41:16 0.0002344482 447.0 (m) DEBRIS
SL-14 DEB LEO 2024-10-06 22:57:23 0.0002879952 801.0 (m) DEBRIS

Associated space launch

18 Low Earth Orbit communication satellites with Ku, Q and V band payloads for the G60 constellation operated by Shanghai Spacecom Satellite Technology (SSST) with funding backed by the Shanghai local government. Initial constellation will consist of 1296 satellites by 2027 with long term plans to expand it to 12000 satellites.

CZ-6A DEB was lifted into orbit during the mission ‘Long March 6A | G60 Polar Group 01’, on board a Long March 6A space rocket.

The launch took place on Aug. 6, 2024, 6:42 a.m. from Launch Complex 9A.

For more information about the launch, click the button.

Launch to space Long March 6A | G60 Polar Group 01
Long March 6A | G60 Polar Group 01

Agency: N/A

Status: Launch Successful

Launch date: Aug. 6, 2024, 6:42 a.m. UTC

Rocket: Long March 6A

Launch pad: Launch Complex 9A

Location: Taiyuan Satellite Launch Center, People's Republic of China

...

Latest news about this satellite

News about space launch
Brightness of first Chinese broadband constellation satellites alarms astronomers

The first satellites of a Chinese broadband constellation are significantly brighter than those of Western systems, posing a new challenge for astronomers.

News about space launch
Chinese rocket stage breaks up into cloud of more than 700 pieces of space debris

HELSINKI — A Chinese Long March 6A rocket’s upper stage has fragmented into a cloud of over 700 pieces of space debris, adding to concerns about long-term orbital safety. China […]

News about space launch
China's Thousand Sails Megaconstellation Kicks Off with Dangerous Debris Field

China's Thousand Sails Megaconstellation Kicks Off with Dangerous Debris Field


Newsletter sign-up

Weekly statistics, charts and insights to help you stay on top of the space industry.